Location: Great Snoring
(52.8667°N, 0.8833°E)
Time: 20:54:55
(UTC+00:00)

MetOp-A - Pass Details

Date: 19 May 2025
Orbit: 521 x 774 km, 98.3° (Epoch: 21 June)

Event Time Altitude Azimuth Distance (km) Brightness Sun altitude
Exits shadow 22:11:03 20° 141° (SE) 1,731 5.2 -13.9°
Maximum altitude 22:14:33 58° 68° (ENE) 907 4.3 -14.1°
Drops below altitude 10° 22:19:38 10° 351° (N) 2,332 7.8 -14.4°
Sets 22:21:58 0° 348° (NNW) 3,252 9.0 -14.5°
